User: anonymous   Login
Location: Fort Wayne
(41.1310°N, 85.1290°W)
Time: 01:51:46
(UTC-05:00)
Language:

IDEFIX/ARIANE 42P - Orbit

View from above orbital plane
View from above orbital plane
View from above satellite
View from above satellite

Ground track
Ground track

The orbit data is extracted from the following two-line orbital elements,

1 27422U 02021B   15058.15081999  .00000125  00000-0  65348-4 0  9991
2 27422 098.2700 093.0911 0011983 204.0436 156.0189 14.29141085666541
Epoch (UTC): 27 February 2015 03:37:10
Eccentricity: 0.0011983
inclination: 98.2700°
perigee height: 786 km
apogee height: 803 km
right ascension of ascending node: 93.0911°
argument of perigee: 204.0436°
revolutions per day: 14.29141085
mean anomaly at epoch: 156.0189°
orbit number at epoch: 66654

The dashed part of the orbit path shows where the satellite is in the earth's shadow,  

DLR